Regional Weather Roundup
Issued by NWS

Home | Current Version | Previous Version | Graphics & Text | Print | Product List | Glossary On
Versions: 1 2 3 4 5 6 7 8 9 10 11 12 13 14 15 16 17 18 19 20 21 22 23 24 25 26 27
000
ASUS45 KBOU 050007
RWRCO

WEATHER ROUNDUP FOR COLORADO
NATIONAL WEATHER SERVICE DENVER/BOULDER CO
600 PM MDT WED MAY 04 2016

NOTE: "FAIR" INDICATES FEW OR NO CLOUDS BELOW 12000 FEET WITH NO
SIGNIFICANT WEATHER AND/OR OBSTRUCTIONS TO VISIBILITY.

COZ001>005-013-030-031-050100-
...NORTHWEST COLORADO...

CITY           SKY/WX    TMP DP  RH WIND       PRES   REMARKS
CRAIG          FAIR      73  29  19 W9        30.14F
HAYDEN         FAIR      70  27  19 N5        30.16F
MEEKER         FAIR      74  21  13 SW9       30.15F
MOUNT WERNER   NOT AVBL
STEAMBOAT SPGS FAIR      69  25  18 N7        30.18F
WALDEN         FAIR      63  10  13 SW10      30.28S
$$

COZ006>008-011-050100-
...WEST CENTRAL VALLEYS...

CITY           SKY/WX    TMP DP  RH WIND       PRES   REMARKS
GRAND JUNCTION FAIR      76  28  17 CALM      30.07F
MONTROSE       FAIR      74  24  15 CALM      30.13F
EAGLE          SUNNY     73  21  14 W13G18    30.17F
RIFLE          FAIR      76  25  15 W14       30.10F
DELTA          NOT AVBL
NUCLA          NOT AVBL
$$

COZ017>023-064>068-050100-
...SOUTHWEST COLORADO...

CITY           SKY/WX    TMP DP  RH WIND       PRES   REMARKS
DURANGO        FAIR      69  26  20 N5        30.22F
CORTEZ         FAIR      74  21  13 SW8       30.16F
PAGOSA SPRINGS FAIR      67  13  12 SW8       30.28F
TELLURIDE      PTSUNNY   62  21  21 CALM      30.34F
WOLF CREEK PAS FAIR      43  19  39 SW14      30.54S
$$

COZ009-010-012-014-032>034-037-058>063-050100-
...CENTRAL COLORADO...

CITY           SKY/WX    TMP DP  RH WIND       PRES   REMARKS
ASPEN          FAIR      67   9  10 SW7       30.23F
BUENA VISTA    FAIR      65  16  15 W7        30.24S
COPPER MTN     NOT AVBL
BERTHOUD PASS  FAIR      37  30  75 CALM      30.53S
COTTONWOOD PAS CLOUDY    61  -2   8 CALM      30.37S
GUNNISON       FAIR      66  19  16 SW10      30.25S
KREMMLING      FAIR      70  12  11 CALM      30.22S
LEADVILLE      FAIR      57  11  16 W12       30.35F
MONARCH PASS   FAIR      43  19  39 SW12G20   30.60S
SALIDA         FAIR      71  18  13 S15       30.29S
SUNLIGHT       FAIR      52  27  37 CALM      30.46S
WILKERSON PASS CLOUDY    45  21  39 E6        30.49S
$$

COZ069>075-050100-
...SAN LUIS VALLEY/SANGRE DE CRISTO MOUNTAINS...

CITY           SKY/WX    TMP DP  RH WIND       PRES   REMARKS
ALAMOSA        FAIR      68  14  12 SE7       30.24F
LA VETA PASS   FAIR      54  10  17 S7        30.42F
SAGUACHE       PTSUNNY   63  27  25 W7G23     30.28S
$$

COZ035-036-038>040-050100-
...NORTHERN COLORADO FRONT RANGE...

CITY           SKY/WX    TMP DP  RH WIND       PRES   REMARKS
DENVER INTL AP FAIR      72  32  23 E10       30.14F
DMNS CITY PARK   N/A     72  27  18 E10       30.13S
AURORA         FAIR      72  34  24 E12       30.16F
FRONT RANGE AP MOSUNNY   70  32  24 E8        30.16
ERIE MUNI ARPT FAIR      73  29  19 E5        30.13S
BOULDER MUN AP FAIR      72  30  21 E3        30.14S
CENTENNIAL     FAIR      72  26  18 NE7       30.16F
BROOMFIELD     MOSUNNY  N/A N/A N/A E6        30.16F
FORT COLLINS   FAIR      73  37  27 S6        30.11S
LONGMONT       FAIR      76  33  20 SE5       30.14F
$$

COZ041-046-047-076>085-087-088-050100-
...PIKES PEAK/PALMER DIVIDE AND SOUTHERN FOOTHILLS...

CITY           SKY/WX    TMP DP  RH WIND       PRES   REMARKS
COLO. SPRINGS  FAIR      69  26  20 S5        30.20S
A. F. ACADEMY  FAIR      66  28  24 SW9       30.20S
SCHRIEVER AFB  NOT AVBL
ELLICOTT       FAIR     N/A N/A N/A S9        30.19S
FALCON         NOT AVBL
FORT CARSON    FAIR      72  28  19 E5        30.17S
LIMON          FAIR      70  32  24 VRB3      30.16F
MONUMENT HILL  FAIR      64  30  27 SE7       30.25S
TRINIDAD       FAIR      73  23  15 E7        30.17S
$$

COZ042>045-048>051-090-091-050100-
...NORTHEAST COLORADO...

CITY           SKY/WX    TMP DP  RH WIND       PRES   REMARKS
GREELEY ARPT   FAIR      75  36  23 CALM      30.12F
AKRON          FAIR      72  35  25 E7        30.13F
BURLINGTON     FAIR      74  37  26 E9        30.13F
WRAY           NOT AVBL
STERLING       FAIR      73  39  29 S5        30.09F
HOLYOKE        NOT AVBL
FORT MORGAN    FAIR      74  33  22 SE6       30.12F
$$

COZ086-089-092>099-050100-
...SOUTHEAST COLORADO...

CITY           SKY/WX    TMP DP  RH WIND       PRES   REMARKS
PUEBLO         FAIR      78  29  16 SE17      30.10F
LA JUNTA       FAIR      78  31  17 NE6       30.10F
LAMAR          FAIR      78  38  23 SW3       30.08F
SPRINGFIELD      N/A     73  37  27 NE7       30.13F
$$




USA.gov is the U.S. government's official web portal to all federal, state and local government web resources and services.